Location: Boiro
(42.6475°N, 8.8834°W)
Time: 01:03:20
(UTC+01:00)

Transit 2A Rocket - Pass Details

Date: 03 December 2021
Orbit: 584 x 917 km, 66.7° (Epoch: 23 January)

Event Time Altitude Azimuth Distance (km) Brightness Sun altitude
Rises 08:01:45 0° 168° (SSE) 3,261 8.8 -8.5°
Reaches altitude 10° 08:04:36 10° 153° (SSE) 2,396 8.4 -8.0°
Maximum altitude 08:08:44 22° 105° (ESE) 1,790 8.1 -7.3°
Drops below altitude 10° 08:13:05 10° 57° (ENE) 2,547 8.2 -6.6°
Sets 08:16:12 0° 43° (NE) 3,526 8.7 -6.1°
